TimeCST,TemperatureF,Dew PointF,Humidity,Sea Level PressureIn,VisibilityMPH,Wind Direction,Wind SpeedMPH,Gust SpeedMPH,PrecipitationIn,Events,Conditions,WindDirDegrees,DateUTC
12:53 AM,44.1,30.0,58,29.94,10.0,West,8.1,-,N/A,,Clear,270,2012-12-04 06:53:00
1:53 AM,39.9,30.0,68,29.97,10.0,SW,8.1,-,N/A,,Clear,220,2012-12-04 07:53:00
2:53 AM,42.1,28.9,60,29.98,10.0,West,6.9,-,N/A,,Clear,260,2012-12-04 08:53:00
3:53 AM,39.9,28.0,63,29.99,10.0,WSW,6.9,-,N/A,,Clear,250,2012-12-04 09:53:00
4:53 AM,39.9,28.9,65,30.02,10.0,WSW,9.2,-,N/A,,Clear,250,2012-12-04 10:53:00
5:53 AM,39.9,28.0,63,30.04,10.0,SW,9.2,-,N/A,,Clear,220,2012-12-04 11:53:00
6:53 AM,39.9,27.0,60,30.07,10.0,WSW,10.4,-,N/A,,Clear,250,2012-12-04 12:53:00
7:53 AM,39.0,27.0,62,30.10,10.0,West,12.7,-,N/A,,Clear,260,2012-12-04 13:53:00
8:53 AM,41.0,27.0,57,30.12,10.0,West,11.5,-,N/A,,Clear,270,2012-12-04 14:53:00
9:53 AM,42.1,27.0,55,30.13,10.0,West,12.7,19.6,N/A,,Clear,280,2012-12-04 15:53:00
10:53 AM,43.0,27.0,53,30.14,10.0,West,11.5,-,N/A,,Clear,280,2012-12-04 16:53:00
11:53 AM,45.0,26.1,48,30.12,10.0,West,9.2,-,N/A,,Clear,280,2012-12-04 17:53:00
12:53 PM,46.0,26.1,46,30.13,10.0,WNW,10.4,-,N/A,,Clear,290,2012-12-04 18:53:00
1:53 PM,45.0,24.1,44,30.16,10.0,NW,11.5,-,N/A,,Clear,310,2012-12-04 19:53:00
2:53 PM,43.0,23.0,45,30.17,10.0,NW,13.8,-,N/A,,Clear,320,2012-12-04 20:53:00
3:53 PM,39.0,21.9,50,30.21,10.0,NW,16.1,-,N/A,,Clear,320,2012-12-04 21:53:00
4:53 PM,36.0,21.0,55,30.24,10.0,WNW,12.7,-,N/A,,Clear,300,2012-12-04 22:53:00
5:53 PM,35.1,21.0,57,30.27,10.0,NW,17.3,-,N/A,,Clear,320,2012-12-04 23:53:00
6:53 PM,32.0,19.9,61,30.30,10.0,NNW,12.7,-,N/A,,Clear,330,2012-12-05 00:53:00
7:53 PM,28.0,18.0,66,30.32,10.0,North,5.8,-,N/A,,Clear,350,2012-12-05 01:53:00
8:53 PM,26.1,17.1,69,30.34,10.0,North,9.2,-,N/A,,Clear,350,2012-12-05 02:53:00
9:53 PM,26.1,14.0,60,30.38,10.0,North,8.1,-,N/A,,Clear,10,2012-12-05 03:53:00
10:53 PM,23.0,12.0,63,30.40,10.0,North,5.8,-,N/A,,Clear,350,2012-12-05 04:53:00
11:53 PM,23.0,12.0,63,30.43,10.0,NNW,5.8,-,N/A,,Clear,340,2012-12-05 05:53:00